Flag for U.S.A. Weather past 2 weeks in Costa Mesa, California, U.S.A.

Now
75 °F

Clear.


Feels Like: 77 °F
Forecast: 70 / 82 °F
Wind: No wind

Location: John Wayne Airport-Orange County Airport

Current Time: Jul 25, 2014 at 2:50:03 AM

Latest Report: Jul 25, 2014 at 1:53 AM


Visibility: 10 mi

Pressure: 29.84 "Hg

Humidity: 66%

Dew point: 63 °F

Location of Costa MesaLocation

Historic Weather in Costa Mesa — Graph

°F

Costa Mesa temperature yesterday

Maximum temperature yesterday: 88 °F (at 1:53 PM)
Minimum temperature yesterday: 69 °F (at 5:53 AM)
Average temperature yesterday: 79 °F

Past Weeks' High & Low Weather Summary

 TemperatureHumidityPressure
High88 °F (Jul 24, 1:53 PM)82% (Jul 12, 5:53 AM)30.06 "Hg (Jul 12, 5:53 AM)
Low68 °F (Jul 12, 4:53 AM)35% (Jul 23, 2:53 PM)29.72 "Hg (Jul 24, 5:53 PM)
Average74 °F65%29.96 "Hg
* Reported Jul 10 1:53 AM — Jul 25 1:53 AM, Costa Mesa, Weather by CustomWeather, © 2014

Note: Actual official high and low records may vary slightly from our data, if they occured in-between our weather recording intervals... More about our weather records

Advertising

Costa Mesa weather history for previous 24 hours

 ConditionsComfort  
Time TempWeatherWind HumidityBarometerVisibility
1:53 AM
Jul 25
75 °FClear.No wind66%29.84 "Hg10 mi
12:53 AM74 °FClear.5 mph71%29.84 "Hg10 mi
11:53 PM
Jul 24
74 °FClear.3 mph74%29.83 "Hg10 mi
10:53 PM74 °FPassing clouds.8 mph74%29.81 "Hg10 mi
9:53 PM75 °FClear.7 mph69%29.80 "Hg10 mi
8:53 PM77 °FPassing clouds.7 mph62%29.77 "Hg10 mi
7:53 PM82 °FPassing clouds.6 mph51%29.75 "Hg10 mi
6:53 PM87 °FPassing clouds.6 mph37%29.73 "Hg10 mi
5:53 PM88 °FPassing clouds.6 mph39%29.72 "Hg10 mi
4:53 PM88 °FScattered clouds.7 mph39%29.74 "Hg10 mi
3:53 PM86 °FScattered clouds.8 mph42%29.76 "Hg10 mi
2:53 PM85 °FSunny.8 mph48%29.78 "Hg10 mi
1:53 PM88 °FScattered clouds.10 mph39%29.79 "Hg10 mi
12:53 PM86 °FScattered clouds.8 mph45%29.80 "Hg10 mi
11:53 AM85 °FScattered clouds.9 mph48%29.82 "Hg10 mi
10:53 AM86 °FPassing clouds.9 mph48%29.83 "Hg10 mi
9:53 AM82 °FPassing clouds.No wind49%29.84 "Hg10 mi
8:53 AM77 °FScattered clouds.No wind62%29.86 "Hg10 mi
7:53 AM72 °FScattered clouds.No wind73%29.86 "Hg10 mi
6:53 AM70 °FPassing clouds.No wind81%29.86 "Hg9 mi
5:53 AM69 °FPassing clouds.No wind81%29.85 "Hg10 mi
4:53 AM70 °FClear.3 mph79%29.84 "Hg10 mi
3:53 AM71 °FClear.No wind76%29.84 "Hg10 mi
2:53 AM70 °FClear.No wind81%29.85 "Hg10 mi
Weather by CustomWeather, © 2014

See weather overviewHow to use our weather pages